| time (UTC) | temp C | wind direction | speed KPH | gust KPH | rain 1hr cm | rain 24hr cm | rain mn cm | humidity % | barometer mb |
| 20260903041552 | 17 | 0 | 0.0 | 0.0 | 0.00 | 0.03 | 0.00 | 84 | 1019.9 |
| 20260903040051 | 17 | 0 | 0.0 | 1.6 | 0.00 | 0.03 | 0.00 | 84 | 1019.9 |
| 20260903034558 | 17 | 0 | 0.0 | 1.6 | 0.00 | 0.03 | 0.03 | 84 | 1020.0 |
| 20260903033055 | 17 | 0 | 0.0 | 0.0 | 0.00 | 0.03 | 0.03 | 84 | 1020.4 |
| 20260903031554 | 17 | 0 | 0.0 | 0.0 | 0.00 | 0.03 | 0.03 | 84 | 1020.3 |
| 20260903030104 | 17 | 0 | 0.0 | 1.6 | 0.00 | 0.03 | 0.03 | 84 | 1020.5 |
| 20260903024558 | 17 | 0 | 0.0 | 1.6 | 0.00 | 0.03 | 0.03 | 84 | 1020.4 |
| 20260903023054 | 17 | 0 | 0.0 | 0.0 | 0.00 | 0.03 | 0.03 | 84 | 1020.5 |
| 20260903021552 | 17 | 0 | 0.0 | 1.6 | 0.00 | 0.03 | 0.03 | 84 | 1020.6 |
| 20260903020058 | 17 | 0 | 0.0 | 1.6 | 0.00 | 0.03 | 0.03 | 84 | 1020.8 |
| 20260903014600 | 17 | 0 | 0.0 | 1.6 | 0.00 | 0.03 | 0.03 | 85 | 1020.8 |
| 20260903013056 | 17 | 0 | 0.0 | 1.6 | 0.00 | 0.03 | 0.03 | 85 | 1020.4 |
| 20260903011557 | 17 | 0 | 0.0 | 0.0 | 0.00 | 0.03 | 0.03 | 85 | 1020.7 |
| 20260903010100 | 17 | 0 | 0.0 | 1.6 | 0.00 | 0.03 | 0.03 | 85 | 1020.6 |
| 20260903004613 | 17 | 0 | 0.0 | 1.6 | 0.00 | 0.03 | 0.03 | 85 | 1020.7 |
| 20260903003055 | 17 | 0 | 0.0 | 1.6 | 0.00 | 0.03 | 0.03 | 85 | 1020.8 |
| 20260903001551 | 17 | 0 | 0.0 | 1.6 | 0.00 | 0.03 | 0.03 | 85 | 1021.0 |
| 20260903000053 | 17 | 0 | 0.0 | 1.6 | 0.00 | 0.03 | 0.03 | 85 | 1021.1 |
| 20260902234558 | 17 | 181 | 0.0 | 1.6 | 0.00 | 0.03 | 0.03 | 85 | 1021.1 |
| 20260902233103 | 18 | 0 | 0.0 | 0.0 | 0.00 | 0.03 | 0.03 | 85 | 1021.5 |
| 20260902231552 | 18 | 0 | 0.0 | 1.6 | 0.00 | 0.03 | 0.03 | 85 | 1021.5 |
| 20260902230055 | 18 | 0 | 0.0 | 1.6 | 0.00 | 0.03 | 0.03 | 85 | 1021.8 |
| 20260902224558 | 19 | 0 | 0.0 | 3.2 | 0.00 | 0.03 | 0.03 | 84 | 1021.6 |
| 20260902223114 | 19 | 0 | 0.0 | 3.2 | 0.00 | 0.03 | 0.03 | 84 | 1021.7 |
| 20260902221553 | 19 | 181 | 0.0 | 3.2 | 0.00 | 0.03 | 0.03 | 84 | 1021.9 |
| 20260902220101 | 20 | 181 | 0.0 | 3.2 | 0.00 | 0.03 | 0.03 | 83 | 1021.8 |
| 20260902214553 | 20 | 0 | 0.0 | 3.2 | 0.00 | 0.03 | 0.03 | 82 | 1021.8 |
| 20260902213051 | 20 | 0 | 0.0 | 3.2 | 0.00 | 0.03 | 0.03 | 82 | 1021.8 |
| 20260902211544 | 20 | 181 | 0.0 | 3.2 | 0.00 | 0.03 | 0.03 | 82 | 1021.5 |
| 20260902210053 | 20 | 182 | 1.6 | 4.8 | 0.00 | 0.03 | 0.03 | 81 | 1021.8 |
| 20260902204630 | 21 | 0 | 1.6 | 4.8 | 0.00 | 0.03 | 0.03 | 81 | 1021.8 |
| 20260902203051 | 20 | 182 | 0.0 | 3.2 | 0.00 | 0.03 | 0.03 | 81 | 1021.9 |
| 20260902201548 | 20 | 182 | 0.0 | 3.2 | 0.00 | 0.03 | 0.03 | 81 | 1022.3 |
| 20260902200058 | 21 | 182 | 0.0 | 4.8 | 0.00 | 0.03 | 0.03 | 81 | 1022.3 |
| 20260902194554 | 20 | 174 | 0.0 | 3.2 | 0.00 | 0.03 | 0.03 | 81 | 1022.3 |
| 20260902193050 | 20 | 174 | 0.0 | 3.2 | 0.00 | 0.03 | 0.03 | 81 | 1022.7 |
| 20260902191548 | 20 | 174 | 0.0 | 4.8 | 0.00 | 0.03 | 0.03 | 80 | 1022.8 |
| 20260902190058 | 20 | 261 | 1.6 | 6.4 | 0.00 | 0.03 | 0.03 | 81 | 1022.5 |
| 20260902184555 | 20 | 0 | 0.0 | 4.8 | 0.00 | 0.03 | 0.03 | 81 | 1022.5 |
| 20260902183105 | 20 | 205 | 0.0 | 3.2 | 0.00 | 0.03 | 0.03 | 82 | 1022.3 |
| 20260902181554 | 20 | 205 | 0.0 | 3.2 | 0.00 | 0.03 | 0.03 | 83 | 1022.6 |
| 20260902180048 | 20 | 205 | 0.0 | 3.2 | 0.00 | 0.03 | 0.03 | 83 | 1022.8 |
| 20260902174552 | 20 | 0 | 0.0 | 3.2 | 0.00 | 0.05 | 0.03 | 83 | 1022.8 |
| 20260902173104 | 20 | 205 | 0.0 | 3.2 | 0.00 | 0.05 | 0.03 | 82 | 1022.9 |
| 20260902171555 | 20 | 175 | 0.0 | 3.2 | 0.00 | 0.05 | 0.03 | 83 | 1022.8 |
| 20260902170053 | 20 | 178 | 0.0 | 3.2 | 0.00 | 0.05 | 0.03 | 83 | 1022.9 |
| 20260902164603 | 20 | 0 | 0.0 | 3.2 | 0.00 | 0.05 | 0.03 | 83 | 1022.8 |
| 20260902163054 | 20 | 0 | 0.0 | 3.2 | 0.00 | 0.05 | 0.03 | 83 | 1023.0 |
| 20260902161553 | 20 | 0 | 0.0 | 3.2 | 0.00 | 0.05 | 0.03 | 83 | 1023.1 |
| 20260902160048 | 20 | 178 | 0.0 | 3.2 | 0.00 | 0.05 | 0.03 | 84 | 1023.2 |
| 20260902154553 | 20 | 178 | 0.0 | 3.2 | 0.00 | 0.08 | 0.03 | 84 | 1023.4 |
| 20260902153107 | 20 | 177 | 0.0 | 3.2 | 0.00 | 0.08 | 0.03 | 85 | 1023.4 |
| 20260902151555 | 20 | 177 | 0.0 | 3.2 | 0.00 | 0.08 | 0.03 | 85 | 1023.6 |
| 20260902150052 | 19 | 177 | 0.0 | 3.2 | 0.00 | 0.08 | 0.03 | 85 | 1023.6 |
| 20260902144600 | 19 | 0 | 0.0 | 4.8 | 0.03 | 0.18 | 0.03 | 85 | 1023.2 |
| 20260902143059 | 19 | 177 | 0.0 | 3.2 | 0.03 | 0.18 | 0.03 | 85 | 1023.0 |
| 20260902141557 | 18 | 0 | 0.0 | 3.2 | 0.03 | 0.18 | 0.03 | 83 | 1023.0 |
| 20260902140054 | 18 | 177 | 0.0 | 1.6 | 0.03 | 0.18 | 0.03 | 82 | 1022.8 |
| 20260902134556 | 18 | 0 | 0.0 | 3.2 | 0.00 | 0.58 | 0.00 | 80 | 1022.8 |
| 20260902133050 | 18 | 177 | 0.0 | 1.6 | 0.00 | 0.58 | 0.00 | 79 | 1022.8 |
| 20260902131555 | 17 | 0 | 0.0 | 1.6 | 0.00 | 0.58 | 0.00 | 79 | 1022.8 |
| 20260902130058 | 17 | 0 | 0.0 | 1.6 | 0.00 | 0.58 | 0.00 | 78 | 1022.9 |
| 20260902124550 | 17 | 177 | 0.0 | 1.6 | 0.00 | 0.89 | 0.00 | 78 | 1023.0 |
| 20260902123057 | 17 | 0 | 0.0 | 1.6 | 0.00 | 0.89 | 0.00 | 78 | 1023.0 |
| 20260902121554 | 17 | 0 | 0.0 | 1.6 | 0.00 | 0.89 | 0.00 | 78 | 1023.1 |
| 20260902120052 | 17 | 0 | 0.0 | 1.6 | 0.00 | 0.89 | 0.00 | 78 | 1023.1 |
| 20260902114550 | 17 | 0 | 0.0 | 1.6 | 0.00 | 0.89 | 0.00 | 78 | 1023.1 |
| 20260902113049 | 17 | 0 | 0.0 | 1.6 | 0.00 | 0.89 | 0.00 | 78 | 1023.0 |
| 20260902111546 | 17 | 0 | 0.0 | 3.2 | 0.00 | 0.89 | 0.00 | 78 | 1022.8 |
| 20260902110059 | 17 | 0 | 0.0 | 1.6 | 0.00 | 0.89 | 0.00 | 78 | 1022.7 |
| 20260902104602 | 16 | 0 | 0.0 | 1.6 | 0.00 | 0.89 | 0.00 | 78 | 1022.3 |
| 20260902103105 | 16 | 0 | 0.0 | 1.6 | 0.00 | 0.89 | 0.00 | 78 | 1022.2 |
| 20260902101603 | 16 | 0 | 0.0 | 1.6 | 0.00 | 0.89 | 0.00 | 78 | 1022.3 |
| 20260902100059 | 16 | 0 | 0.0 | 0.0 | 0.00 | 0.89 | 0.00 | 78 | 1022.0 |
| 20260902094549 | 16 | 0 | 0.0 | 0.0 | 0.00 | 0.89 | 0.00 | 78 | 1022.0 |
| 20260902093053 | 16 | 0 | 0.0 | 0.0 | 0.00 | 0.89 | 0.00 | 79 | 1021.9 |
| 20260902091603 | 16 | 0 | 0.0 | 0.0 | 0.00 | 0.89 | 0.00 | 79 | 1021.6 |
| 20260902090100 | 16 | 0 | 0.0 | 0.0 | 0.00 | 0.89 | 0.00 | 79 | 1021.7 |
| 20260902084557 | 16 | 0 | 0.0 | 0.0 | 0.00 | 0.89 | 0.00 | 78 | 1021.3 |
| 20260902083056 | 16 | 0 | 0.0 | 0.0 | 0.00 | 0.89 | 0.00 | 79 | 1021.6 |
| 20260902081552 | 16 | 0 | 0.0 | 0.0 | 0.00 | 0.89 | 0.00 | 79 | 1022.0 |
| 20260902080052 | 16 | 0 | 0.0 | 0.0 | 0.00 | 0.89 | 0.00 | 79 | 1021.9 |
| 20260902074559 | 16 | 0 | 0.0 | 0.0 | 0.00 | 0.89 | 0.00 | 79 | 1021.9 |
| 20260902073054 | 16 | 0 | 0.0 | 0.0 | 0.00 | 0.89 | 0.00 | 79 | 1021.8 |
| 20260902071555 | 16 | 0 | 0.0 | 0.0 | 0.00 | 0.89 | 0.00 | 79 | 1021.7 |
| 20260902070054 | 16 | 0 | 0.0 | 0.0 | 0.00 | 0.89 | 0.00 | 79 | 1021.4 |
| 20260902064604 | 16 | 0 | 0.0 | 0.0 | 0.00 | 0.89 | 0.00 | 79 | 1021.6 |
| 20260902063109 | 16 | 0 | 0.0 | 0.0 | 0.00 | 0.89 | 0.00 | 79 | 1021.5 |
| 20260902061616 | 16 | 0 | 0.0 | 0.0 | 0.00 | 0.89 | 0.00 | 79 | 1021.6 |
| 20260902060054 | 16 | 0 | 0.0 | 0.0 | 0.00 | 0.89 | 0.00 | 79 | 1021.5 |
| 20260902054554 | 16 | 0 | 0.0 | 0.0 | 0.00 | 0.89 | 0.00 | 79 | 1021.5 |
| 20260902053105 | 16 | 0 | 0.0 | 0.0 | 0.00 | 0.89 | 0.00 | 79 | 1021.5 |
| 20260902051615 | 16 | 0 | 0.0 | 0.0 | 0.00 | 0.89 | 0.00 | 79 | 1021.3 |
| 20260902050054 | 16 | 0 | 0.0 | 0.0 | 0.00 | 0.89 | 0.00 | 79 | 1021.1 |
| 20260902044631 | 16 | 0 | 0.0 | 0.0 | 0.00 | 0.89 | 0.00 | 79 | 1020.8 |
| 20260902043102 | 16 | 0 | 0.0 | 0.0 | 0.00 | 0.89 | 0.00 | 80 | 1020.7 |